Weather History for Toledo, OH

Change the Weather History Date:

Saturday, July 20, 2013

  Actual Average Record
Temperature  
Mean Temperature 78 °F 74 °F  
Max Temperature 87 °F 85 °F 102 °F (1930)
Min Temperature 68 °F 63 °F 48 °F (1965)
Degree Days  
Heating Degree Days 0 0  
Month to date heating degree days 1 0  
Since 1 June heating degree days 32 35  
Since 1 July heating degree days 1 0  
Cooling Degree Days 13 9  
Month to date cooling degree days 210 178  
Year to date cooling degree days 466 401  
Since 1 June cooling degree days 372 348  
Growing Degree Days 28 (Base 50)    
Moisture  
Dew Point 69 °F    
Average Humidity 68    
Maximum Humidity 93    
Minimum Humidity 42    
Precipitation  
Precipitation 0.86 in 0.10 in 2.86 in (1989)
Month to date precipitation 2.83 2.03  
Year to date precipitation 23.68 18.97  
Snow  
Snow 0.00 in 0.00 in - ()
Month to date snowfall 0.0 0.0  
Since 1 June snowfall 0.0 0.0  
Since 1 July snowfall 0.0 0.0  
Snow Depth 0.00 in    
Sea Level Pressure  
Sea Level Pressure 29.82 in    
Wind  
Wind Speed 7 mph (WSW)    
Max Wind Speed 20 mph    
Max Gust Speed 24 mph    
Visibility 9 miles    
Events Fog , Rain , Thunderstorm    
T = Trace of Precipitation, MM = Missing Value Source: NWS Daily Summary

Daily Weather History Graph

Daily Weather History Graph

Search for Another Location

Airport:

Trip Planner

Search our weather history database for the weather conditions in past years. The results will help you decide how hot, cold, wet, or windy it might be!

Date:

Astronomy

Jul. 20, 2013 Rise Set
Actual Time 6:18 AM EDT 9:04 PM EDT
Civil Twilight 5:46 AM EDT 9:36 PM EDT
Nautical Twilight 5:05 AM EDT 10:17 PM EDT
Astronomical Twilight 4:18 AM EDT 11:03 PM EDT
Moon 7:06 PM EDT (7/20) 3:57 AM EDT (7/20)
Length of Visible Light 15h 50m
Length of Day
14h 45m
Waxing Gibbous, 93% of the Moon is Illuminated
Jul 20
Waxing Gibbous
Jul 22
Full
Jul 29
Last Quarter
Aug 6
New
Aug 14
First Quarter

Hourly Weather History & Observations

Time (EDT) Temp. Heat Index Dew Point Humidity Pressure Visibility Wind Dir Wind Speed Gust Speed Precip Events Conditions
12:52 AM 82.0 °F 85.9 °F 70.0 °F 67% 29.78 in 9.0 mi SW 13.8 mph 20.7 mph N/A   Mostly Cloudy
1:52 AM 81.0 °F 84.4 °F 70.0 °F 69% 29.77 in 10.0 mi SW 11.5 mph - N/A   Mostly Cloudy
2:13 AM 80.6 °F 83.9 °F 69.8 °F 70% 29.78 in 10.0 mi SW 12.7 mph - N/A Thunderstorm Thunderstorm
2:36 AM 78.8 °F - 68.0 °F 69% 29.79 in 10.0 mi North 12.7 mph - N/A   Overcast
2:52 AM 77.0 °F - 66.9 °F 71% 29.77 in 10.0 mi North 4.6 mph - N/A   Overcast
3:07 AM 77.0 °F - 66.2 °F 69% 29.80 in 10.0 mi North 3.5 mph - N/A Thunderstorm Thunderstorm
3:31 AM 71.6 °F - 69.8 °F 94% 29.82 in 1.2 mi NW 13.8 mph 24.2 mph 0.04 in Rain , Thunderstorm Heavy Thunderstorms and Rain
3:39 AM 69.8 °F - 69.8 °F 100% 29.79 in 0.5 mi SW 11.5 mph 24.2 mph 0.52 in Fog , Rain , Thunderstorm Heavy Thunderstorms and Rain
3:44 AM 71.6 °F - 69.8 °F 94% 29.78 in 1.8 mi WSW 6.9 mph - 0.56 in Rain , Thunderstorm Light Thunderstorms and Rain
3:46 AM 71.6 °F - 69.8 °F 94% 29.79 in 3.0 mi West 11.5 mph - 0.56 in Rain , Thunderstorm Light Thunderstorms and Rain
3:52 AM 72.0 °F - 70.0 °F 93% 29.77 in 10.0 mi West 8.1 mph - 0.57 in Rain , Thunderstorm Light Thunderstorms and Rain
4:22 AM 71.6 °F - 69.8 °F 94% 29.76 in 1.8 mi SSW 9.2 mph - 0.11 in Rain , Thunderstorm Heavy Thunderstorms and Rain
4:30 AM 71.6 °F - 69.8 °F 94% 29.76 in 3.0 mi SW 8.1 mph - 0.17 in Rain , Thunderstorm Light Thunderstorms and Rain
4:52 AM 72.0 °F - 69.1 °F 91% 29.76 in 4.0 mi SW 11.5 mph - 0.25 in Rain , Thunderstorm Thunderstorms and Rain
5:52 AM 72.0 °F - 70.0 °F 93% 29.77 in 10.0 mi WSW 8.1 mph - 0.04 in Thunderstorm Scattered Clouds
6:08 AM 71.6 °F - 69.8 °F 94% 29.79 in 10.0 mi SSW 3.5 mph - N/A   Mostly Cloudy
6:20 AM 71.6 °F - 69.8 °F 94% 29.81 in 10.0 mi South 3.5 mph - N/A Thunderstorm Mostly Cloudy
6:42 AM 71.6 °F - 69.8 °F 94% 29.82 in 10.0 mi SSW 4.6 mph - N/A Thunderstorm Overcast
6:52 AM 72.0 °F - 70.0 °F 93% 29.79 in 10.0 mi SSW 6.9 mph - N/A   Overcast
7:35 AM 71.6 °F - 71.6 °F 100% 29.82 in 10.0 mi SW 3.5 mph - N/A   Overcast
7:52 AM 72.0 °F - 70.0 °F 93% 29.80 in 10.0 mi SW 5.8 mph - N/A   Scattered Clouds
8:24 AM 71.6 °F - 69.8 °F 94% 29.83 in 10.0 mi SSW 4.6 mph - N/A   Mostly Cloudy
8:52 AM 73.0 °F - 71.1 °F 93% 29.82 in 10.0 mi SSW 3.5 mph - N/A   Overcast
9:21 AM 73.4 °F - 71.6 °F 94% 29.85 in 10.0 mi SSW 4.6 mph - N/A   Overcast
9:52 AM 73.9 °F - 71.1 °F 91% 29.84 in 10.0 mi SW 6.9 mph - N/A   Mostly Cloudy
10:52 AM 77.0 °F - 72.0 °F 84% 29.83 in 10.0 mi WSW 4.6 mph - N/A   Mostly Cloudy
11:11 AM 78.8 °F - 71.6 °F 78% 29.85 in 10.0 mi Calm Calm - N/A   Partly Cloudy
11:52 AM 79.0 °F - 72.0 °F 79% 29.84 in 10.0 mi SW 5.8 mph - N/A   Mostly Cloudy
12:42 PM 80.6 °F 84.6 °F 71.6 °F 74% 29.85 in 10.0 mi SW 9.2 mph - N/A   Mostly Cloudy
12:52 PM 81.0 °F 84.9 °F 71.1 °F 72% 29.84 in 10.0 mi WSW 8.1 mph - N/A   Mostly Cloudy
1:52 PM 82.9 °F 87.0 °F 70.0 °F 65% 29.83 in 10.0 mi West 12.7 mph - N/A   Scattered Clouds
2:52 PM 84.9 °F 87.6 °F 66.9 °F 55% 29.83 in 10.0 mi West 12.7 mph - N/A   Scattered Clouds
3:52 PM 84.0 °F 86.5 °F 66.9 °F 56% 29.82 in 10.0 mi WNW 9.2 mph - N/A   Partly Cloudy
4:52 PM 84.0 °F 86.3 °F 66.0 °F 55% 29.83 in 10.0 mi NNW 5.8 mph - N/A   Mostly Cloudy
5:52 PM 86.0 °F 86.1 °F 61.0 °F 43% 29.83 in 10.0 mi NW 9.2 mph - N/A   Clear
6:52 PM 82.9 °F 83.7 °F 62.1 °F 49% 29.83 in 10.0 mi NNW 6.9 mph - N/A   Clear
7:52 PM 82.0 °F 83.8 °F 64.9 °F 56% 29.84 in 10.0 mi North 4.6 mph - N/A   Clear
8:52 PM 80.1 °F 81.7 °F 64.0 °F 58% 29.86 in 10.0 mi North 5.8 mph - N/A   Clear
9:52 PM 75.9 °F - 64.9 °F 69% 29.88 in 10.0 mi Calm Calm - N/A   Clear
10:52 PM 73.9 °F - 62.1 °F 66% 29.91 in 10.0 mi North 5.8 mph - N/A   Clear
11:52 PM 72.0 °F - 62.1 °F 71% 29.91 in 10.0 mi North 4.6 mph - N/A   Clear